Precipitable_Water
1.51 1.55 1.60 1.61 1.66 1.69 1.72 1.74 1.84 1.88 1.97 1.84 1.72 1.64 1.51 1.32 1.01 1.03 1.13 1.09 1.26 1.37
1.51 1.54 1.55 1.63 1.66 1.61 1.61 1.65 1.71 1.75 1.80 1.83 1.73 1.55 1.47 1.23 1.04 1.22 1.29 1.31 1.30 1.36
1.55 1.58 1.61 1.67 1.65 1.68 1.73 1.84 1.83 1.78 1.81 1.82 1.74 1.61 1.59 1.29 1.08 1.12 1.24 1.25 1.26 1.28
1.49 1.52 1.57 1.59 1.64 1.71 1.77 1.80 1.77 1.83 1.87 1.84 1.87 1.90 1.79 1.58 1.24 1.16 1.25 1.24 1.14 1.16
1.71 1.80 1.84 1.89 1.93 2.04 2.06 2.14 2.22 2.25 2.31 2.26 2.08 2.03 1.99 1.87 1.64 1.34 1.21 1.30 1.22 1.16
1.98 2.06 2.13 2.19 2.28 1.97 2.28 2.32 2.09 1.84 1.72 1.82 2.20 2.24 2.07 1.94 1.77 1.71 1.54 1.37 1.40 1.32
1.90 1.90 1.93 1.99 1.97 1.97 1.95 1.88 1.90 1.82 1.62 1.55 1.74 1.95 1.94 1.82 1.72 1.86 1.81 1.73 1.64 1.58
1.80 1.83 1.81 1.77 1.75 1.68 1.67 1.61 1.63 1.62 1.55 1.49 1.62 1.72 1.73 1.61 1.57 1.69 1.85 1.82 1.78 1.71
1.61 1.55 1.54 1.50 1.48 1.48 1.48 1.44 1.41 1.43 1.49 1.45 1.61 1.73 1.67 1.73 1.78 1.77 1.72 1.73 1.80 1.79
1.19 1.15 1.13 1.12 1.10 1.08 1.11 1.17 1.19 1.28 1.39 1.46 1.58 1.65 1.63 1.66 1.64 1.61 1.66 1.72 1.79 1.84
0.95 0.93 1.00 1.03 1.07 1.11 1.17 1.19 1.24 1.30 1.37 1.42 1.45 1.49 1.56 1.64 1.68 1.68 1.71 1.77 1.82 1.82
0.96 0.92 0.93 0.96 1.02 1.10 1.13 1.16 1.21 1.28 1.31 1.35 1.41 1.53 1.60 1.59 1.54 1.52 1.55 1.62 1.67 1.72
1.00 0.94 0.93 0.96 0.99 1.05 1.06 1.07 1.12 1.16 1.25 1.30 1.34 1.41 1.38 1.37 1.35 1.30 1.32 1.42 1.51 1.65
1.02 0.98 1.01 0.99 0.98 0.98 0.98 0.98 1.01 1.04 1.11 1.15 1.19 1.19 1.23 1.26 1.25 1.25 1.25 1.31 1.41 1.51
Wind_Speed
2 2 3 4 5 6 8 9 11 12 11 11 11 11 11 11 11 10 11 12 12 12
4 4 5 6 8 10 11 12 12 12 13 14 14 13 12 13 12 12 12 11 11 12
6 8 9 11 12 13 14 15 16 16 17 18 17 17 16 16 15 15 14 14 13 13
9 10 12 13 15 16 17 18 19 20 20 21 20 20 19 18 18 18 17 17 16 16
10 11 13 15 17 19 19 20 18 18 20 23 24 23 22 21 22 22 21 20 20 19
14 15 17 18 20 21 24 25 23 24 28 36 24 22 20 21 25 27 25 23 23 23
13 14 15 17 18 21 22 23 23 22 20 19 15 17 19 22 23 21 23 24 24 25
12 13 15 17 19 21 21 22 23 22 21 19 18 18 21 22 21 21 21 21 23 25
14 16 18 19 20 21 21 21 20 20 20 20 21 23 25 25 23 24 25 25 25 24
15 17 17 18 19 19 20 20 20 20 20 20 21 22 22 22 22 23 25 26 27 27
15 16 17 18 18 18 19 20 19 19 18 18 19 20 20 20 21 23 24 26 28 29
15 16 17 17 17 17 18 18 18 18 18 17 16 17 16 15 16 17 19 21 22 24
15 16 16 16 16 17 17 17 17 18 18 18 17 17 17 16 14 13 14 13 14 14
14 14 15 15 16 16 16 16 17 17 18 19 19 19 18 17 15 13 13 12 11 9
Wind_Direction
201 228 247 253 257 266 269 276 275 273 270 269 272 275 278 284 283 277 278 270 266 261
255 263 271 275 277 278 278 277 278 277 270 270 271 271 276 279 277 275 274 269 268 264
281 281 280 280 282 282 280 280 278 276 272 270 268 268 273 275 274 273 272 271 268 264
293 291 289 287 286 285 281 278 274 274 271 268 266 266 268 272 272 270 269 270 268 265
301 301 297 294 292 287 284 282 279 283 281 275 268 266 267 271 272 267 265 266 267 265
304 303 302 302 299 309 299 301 313 311 309 290 265 266 269 279 282 264 263 263 264 264
311 310 310 312 312 312 312 310 309 309 326 355 287 279 280 286 291 264 260 264 267 265
324 323 322 321 320 319 318 315 311 305 305 301 302 288 287 290 284 272 268 269 269 265
327 325 323 323 323 324 323 323 321 315 309 300 299 295 290 288 283 275 270 270 270 270
334 334 332 332 331 331 331 328 325 321 316 309 304 299 295 290 285 281 277 275 272 270
342 342 340 340 340 340 340 339 337 336 331 324 318 312 303 296 289 287 285 282 278 271
347 347 348 349 349 349 351 353 353 353 351 346 342 337 328 317 306 302 297 291 285 276
348 352 355 356 358 358 1 4 5 6 7 8 4 359 353 347 341 335 328 320 308 288
348 351 354 359 1 4 7 10 10 9 8 6 4 2 1 359 354 346 342 337 329 314